Starlink 5287

operational
NORAD ID: 55293 Int'l Des: 2023-010 Owner: SPXS Country: US Constellation: starlink
LEOCIRCULAR

About Starlink 5287

Description loading...

Live Position

Loading 3D Globe...

Upcoming Passes

Altitude History

Altitude vs Time

uPlot chart will show altitude changes over time

Two-Line Element Set

1 55293U 23010AA 25350.93472824 -.00000262 00000-0 -14170-4 0 9993
2 55293 69.9977 233.0913 0002951 274.0158 86.0663 14.98331530160876
Epoch: Dec 16, 2025 • Age: 10 hours

Current Status

Altitude 581.9 km
Velocity 7.57 km/s
Sub-Earth Point 53.16°N, 168.08°E
Launch Date Jan 19, 2023
Age 2.9 years
Type internet

Technical Details

Classification Payload
Mass 305.00 kg
Dry Mass 290.00 kg
Total Mass 305.00 kg
Length 0.20 m
Diameter 2.80 m
Span 9.00 m
Shape Box + pan
Manufacturer SPXS
Bus Type Starlink
Phase Status In Orbit
Owner/State SPXS/US

Large Constellations

Loading constellations...